Regional Weather Roundup
Issued by NWS

Home | Current Version | Previous Version | Text Only | Print | Product List | Glossary Off
Versions: 1 2 3 4 5 6 7 8 9 10 11 12 13 14 15 16 17 18 19 20 21 22 23 24 25 26 27 28 29 30 31 32 33 34 35 36 37 38 39 40 41 42 43 44 45 46 47 48 49 50

000
ASUS43 KIND 171409
RWRIN

WEATHER ROUNDUP FOR INDIANA
NATIONAL WEATHER SERVICE INDIANAPOLIS IN
900 AM EST WED DEC 17 2014

NOTE: "FAIR" INDICATES FEW OR NO CLOUDS BELOW 12,000 FEET WITH NO
SIGNIFICANT WEATHER AND/OR OBSTRUCTIONS TO VISIBILITY.

* - STATION DOES NOT REPORT WEATHER SUCH AS PRECIPITATION OR FOG.

+ - STATION NOT QUALITY CONTROLLED BY THE NATIONAL WEATHER SERVICE.
    USE DATA WITH CAUTION...ESPECIALLY DEWPOINT AND RELATIVE
    HUMIDITY OBSERVATIONS.

INZ001>003-010>013-019-020-171500-
NORTHWEST INDIANA

CITY           SKY/WX    TMP DP  RH WIND       PRES   REMARKS
GARY /AIRPORT/ CLOUDY    28  21  74 NW12      30.23S WCI  18
KNOX *+        CLOUDY    27  23  85 W13       30.20S WCI  16
LA PORTE +     CLOUDY    28  24  83 W13G18    30.20S WCI  18
MICHIGAN CITY+ CLOUDY    28  21  74 W10G17    30.21S WCI  19
MONTICELLO +   CLOUDY    26  22  87 W12       30.23F WCI  15
RENSSELAER +   CLOUDY    27  27 100 W13G18    30.24S WCI  16
VALPARAISO     CLOUDY    26  20  77 W10       30.22R WCI  16

$$

LMZ046-743>745-171500-
SOUTHERN LAKE MICHIGAN

STATION/POSITION TIME  TEMP WIND        PRES
                       AIR  DIR/SP/G
                 (UTC) (F)  (DEG/KT/KT) (MB)

$$

INZ004-005-014>016-021>024-171500-
NORTH CENTRAL INDIANA

CITY           SKY/WX    TMP DP  RH WIND       PRES   REMARKS
ELKHART        CLOUDY    28  21  74 NW13G20   30.18R WCI  18
GOSHEN         CLOUDY    29  23  78 W18       30.17R WCI  16
LOGANSPORT +   CLOUDY    27  23  86 W16       30.23S WCI  14
PERU/GRISSOM   CLOUDY    26  26 100 NW14      30.21R WCI  15
ROCHESTER +    CLOUDY    30  27  86 W12       30.21S WCI  21
SOUTH BEND     CLOUDY    28  22  78 NW16G23   30.18  WCI  16
WARSAW +       CLOUDY    28  25  86 W12       30.17S WCI  18

$$

INZ006>009-017-018-025>027-171500-
NORTHEAST INDIANA

CITY           SKY/WX    TMP DP  RH WIND       PRES   REMARKS
ANGOLA *+      CLOUDY    28  23  80 W10       30.12R WCI  19
AUBURN +       CLOUDY    32  25  74 W13G18    30.16R WCI  22
FORT WAYNE     CLOUDY    30  24  78 W18       30.17S WCI  18
HUNTINGTON +   CLOUDY    28  25  88 W14G22    30.19R WCI  17

$$

INZ028-029-035-036-043>045-051>053-171500-
WEST CENTRAL INDIANA

CITY           SKY/WX    TMP DP  RH WIND       PRES   REMARKS
GREENCASTLE +  CLOUDY    27  23  86 NW3       30.27R FOG
LAFAYETTE      CLOUDY    24  20  84 W10       30.26S WCI  14
TERRE HAUTE    CLOUDY    26  21  81 W8        30.31R WCI  18

$$

INZ030>032-037>040-046>048-054>057-064-065-171500-
CENTRAL INDIANA

CITY           SKY/WX    TMP DP  RH WIND       PRES   REMARKS
ANDERSON       CLOUDY    27  25  93 W17G29    30.32  WCI  14
CP ATTERBURY + CLOUDY    30  25  80 MISG      30.27S
FRANKFORT +    CLOUDY    25  25 100 W14       30.26S WCI  14
INDIANAPOLIS   CLOUDY    25  22  88 NW12      30.25R WCI  14
-EAGLE CREEK   CLOUDY    25  22  88 W9        30.24S WCI  15
KOKOMO *+      CLOUDY    27  21  80 W15       30.22S WCI  15
MARION +       CLOUDY    27  25  92 W17       30.22R WCI  14
MT COMFORT *+  CLOUDY    27  25  93 NW9       30.24S WCI  17
SHELBYVILLE    CLOUDY    29  24  82 W12       30.24R WCI  19
ZIONSVILLE +   CLOUDY    26  22  85 W9        30.24F WCI  16

$$

INZ033-034-041-042-049-050-058-059-171500-
EAST CENTRAL INDIANA

CITY           SKY/WX    TMP DP  RH WIND       PRES   REMARKS
MUNCIE         CLOUDY    28  24  85 W14G22    30.21R WCI  17

$$

INZ060-061-067>069-081>083-085>088-171500-
SOUTHWEST INDIANA

CITY           SKY/WX    TMP DP  RH WIND       PRES   REMARKS
EVANSVILLE     CLOUDY    32  24  72 VRB5      30.34R WCI  27
HUNTINGBURG *+ CLOUDY    30  23  74 NW8       30.32R WCI  23
WASHINGTON +   CLOUDY    29  26  88 NW8       30.32R WCI  21

$$

INZ062-063-066-070>080-084-089>092-171500-
SOUTH CENTRAL AND SOUTHEAST INDIANA

CITY           SKY/WX    TMP DP  RH WIND       PRES   REMARKS
BLOOMINGTON    CLOUDY    26  22  84 NW8       30.28R WCI  18
SEYMOUR +      CLOUDY    30  23  74 NW8       30.28  WCI  23

$$



USA.gov is the U.S. government's official web portal to all federal, state and local government web resources and services.